Regional Weather Roundup
Issued by NWS Bismarck, ND

Home | Current Version | Previous Version | Text Only | Print | Product List | Glossary On
Versions: 1 2 3 4 5 6 7 8 9 10 11 12 13 14 15 16 17 18 19 20 21 22 23 24 25 26 27 28 29 30 31 32 33 34 35 36 37 38 39 40 41 42 43 44 45 46 47 48 49 50
000
ASUS43 KBIS 230220
RWRBIS

NWR BROADCAST TEXT
NATIONAL WEATHER SERVICE BISMARCK ND
900 PM CDT MON SEP 22 2014

NOTE: "FAIR" INDICATES FEW OR NO CLOUDS BELOW 12,000 FEET WITH NO
SIGNIFICANT WEATHER AND/OR OBSTRUCTIONS TO VISIBILITY.


CITY           SKY/WX    TMP DP  RH WIND       PRES   REMARKS
WILLISTON      CLEAR     71  50  47 S6        29.87R
MINOT          CLEAR     63  49  60 SE7       29.92S
MINOT AFB      CLEAR     60  50  69 SE9       29.91S
BISMARCK       PTCLDY    63  48  58 E10       29.95S
DICKINSON      PTCLDY    62  49  62 E9        29.90S
GARRISON         N/A     64  50  60 SE7       29.93S
HETTINGER ARPT PTCLDY    65  49  56 E12       29.91S
JAMESTOWN      CLEAR     57  48  72 S5        30.02R
BEACH            N/A     61  50  67 SE7       29.90R
CARRINGTON     FAIR      63  50  63 S13       30.01S
CROSBY         FAIR      57  50  77 E3        29.89S
HARVEY         FAIR      64  48  55 SE8       29.98S
HAZEN          FAIR      63  46  55 E6        29.93S
LINTON         FAIR      66  50  55 SE9       29.97S
MANDAN         FAIR      64  48  55 E9        29.95S
OAKES            N/A     57  50  77 SE10      30.05R
RUGBY          FAIR      66  46  48 SE10      29.96S
STANLEY        FAIR      63  50  63 SE10      29.92S
TIOGA          FAIR      66  50  55 S12       29.93S
WATFORD CITY   FAIR      66  48  52 SE12      29.87S
$$

CITY           SKY/WX    TMP DP  RH WIND       PRES   REMARKS
GRAND FORKS    CLEAR     57  49  74 SE7       30.02R
GRAND FORKS AF CLEAR     58  49  72 SE8       30.03R
DEVILS LAKE    CLEAR     61  50  67 SE8       29.99S
FARGO          CLEAR     65  48  54 SE8       30.05R
CANDO          FAIR      57  48  72 SE8       29.99S
CAVALIER       FAIR      59  48  67 S5        30.01R
GRAFTON        FAIR      55  48  76 S9        30.01S
GWINNER        CLEAR     63  48  59 S10       30.06S
LANGDON        FAIR      57  46  67 S10       30.02R
ROLLA          FAIR      59  45  58 S6        30.00R
WALHALLA         N/A     59  50  72 SE3       30.00R
$$

CITY           SKY/WX    TMP DP  RH WIND       PRES   REMARKS
ABERDEEN       CLEAR     63  49  60 S12       30.05R
MOBRIDGE       CLEAR     71  51  49 S13       29.94S
BUFFALO          N/A     68  50  52 E9        29.84S
RAPID CITY     CLOUDY    64  56  75 S8        29.93R
GLASGOW        CLEAR     67  48  50 E6        29.83R
SIDNEY         CLEAR    N/A N/A N/A CALM      29.87S
WOLF POINT     CLEAR     65  49  56 NE5       29.83R
GLENDIVE       MOCLDY    64  52  63 NE6       29.88R
MILES CITY     PTCLDY    70  47  43 NW6       29.85R
BAKER          PTCLDY    63  50  62 E7        29.90R
$$

CITY           SKY/WX    TMP DP  RH WIND       PRES   REMARKS
BILLINGS       MOCLDY    74  47  38 NW9       29.92R
GREAT FALLS    MOCLDY    68  49  50 S10       29.89R
REGINA         PTCLDY    64  48  55 SE10      29.85S
ESTEVAN        CLEAR     59  50  72 SE6       29.90R
$$




USA.gov is the U.S. government's official web portal to all federal, state and local government web resources and services.